Back to catalog

CZ-6A DEB

AliveSSO
NORAD 54475·DEBRIS·🇨🇳 China

Launched Nov 11, 2022 from Taiyuan Satellite Launch Center

Loading…

Next Passes (next 24 hours)

TLE

FreshSource: Space-Track

Epoch: Sep 14, 2026, 04:44 UTC

1 54475U 22151HB  26257.19750374  .00001818  00000-0  31961-3 0  9995
2 54475  98.5932 335.5421 0131622 328.0514  31.2754 14.63539383203691

Track CZ-6A DEB in real time with AllMySat

Download on the App Store